Temp
70 68 68 68 67 66 65 64 61 60 62 62 61 63 63 62 61 60 56 55 55 54 54 54 53 53 52 50 50 50 49 50 51 49 50 54 56 53 55 56 55 54 54
65 64 65 65 64 64 63 62 61 61 62 63 56 58 61 60 59 59 56 55 53 53 53 51 52 51 50 50 49 48 47 49 50 46 45 45 51 54 54 54 53 52 53
62 62 62 63 63 62 61 62 59 58 57 52 54 57 57 60 61 59 57 55 53 52 51 50 50 50 50 49 48 47 45 43 48 47 39 35 40 41 53 51 52 50 51
63 62 61 61 61 60 61 59 56 54 52 49 51 53 56 54 55 55 56 54 52 51 51 50 49 49 49 48 48 48 45 45 42 45 45 41 37 33 37 49 48 49 50
62 60 61 61 61 60 57 56 54 51 46 50 52 56 54 56 56 54 51 52 52 51 50 49 48 48 49 48 46 45 44 45 41 38 37 39 40 40 34 34 41 46 48
60 61 60 59 59 59 56 54 51 45 50 51 53 52 50 51 51 49 50 51 52 52 50 49 49 48 47 47 47 46 44 42 41 38 36 35 32 34 33 32 36 37 43
57 56 56 57 57 55 55 52 48 46 50 51 52 51 51 49 48 50 50 48 49 49 49 48 47 48 47 47 47 46 42 40 36 35 35 37 37 37 37 35 34 35 40
56 57 58 58 56 55 53 51 47 47 50 52 51 51 49 52 52 50 49 49 48 49 48 48 48 47 47 47 46 46 39 38 35 35 35 36 37 38 36 34 32 32 36
57 57 58 57 55 54 52 48 47 48 52 51 51 50 50 49 49 48 49 49 49 49 48 47 47 48 47 46 45 41 37 36 36 35 35 34 37 38 38 37 35 32 29
57 56 57 55 56 53 47 46 46 50 51 51 51 51 50 49 49 49 47 48 48 48 47 47 47 46 46 45 44 39 38 36 36 36 35 34 36 37 37 37 36 36 32
56 56 55 56 54 50 46 43 51 50 51 51 50 49 49 49 49 48 48 48 47 47 47 46 45 45 44 44 41 38 38 37 37 38 35 34 36 35 35 36 37 35 35
57 56 56 54 49 46 45 52 51 51 50 50 49 48 48 48 48 47 47 47 47 47 46 45 44 43 43 42 39 36 37 36 37 36 35 34 36 35 36 35 35 36 37
55 55 54 52 47 48 48 50 52 50 50 50 49 48 47 47 47 47 46 46 46 45 45 44 43 42 41 40 38 36 37 38 38 37 36 35 35 34 35 34 34 35 36
53 54 54 51 50 48 47 50 50 50 50 50 49 47 47 46 46 46 46 45 45 44 44 43 43 42 41 41 35 36 36 38 38 38 37 37 36 33 33 34 34 35 34
53 53 53 51 49 42 43 51 50 50 49 48 48 46 47 47 46 45 45 45 44 44 44 43 42 42 42 39 34 35 36 37 36 37 38 39 36 35 34 32 34 34 33
51 51 51 49 39 39 46 49 50 49 50 48 47 47 46 46 44 44 44 44 44 44 44 43 42 41 42 33 33 34 35 37 36 36 37 38 36 36 34 34 34 34 32
52 49 49 41 39 40 49 49 50 50 48 47 47 46 45 44 44 45 44 43 43 44 43 43 42 41 41 34 34 33 36 37 37 36 36 35 36 35 34 35 35 35 34
50 47 42 41 41 47 51 50 51 49 47 46 45 45 45 44 44 45 44 43 45 44 43 43 42 42 41 34 33 32 38 38 38 38 36 34 34 34 32 34 35 36 37
50 43 43 42 44 50 51 50 49 48 46 44 44 44 44 43 43 43 43 44 44 44 43 44 42 40 41 34 33 33 36 36 37 37 36 34 33 31 32 32 33 34 36
45 41 41 43 51 50 50 49 47 47 44 43 43 44 44 43 43 43 43 44 45 44 44 43 43 39 41 36 33 33 34 34 33 36 36 34 30 30 31 31 32 32 34
42 43 45 51 51 51 50 47 47 44 44 44 44 44 45 44 44 45 45 45 44 44 43 43 43 42 40 40 34 32 32 30 31 32 33 34 30 30 31 31 31 30 32
43 48 51 50 50 50 50 47 44 44 45 44 44 44 44 45 45 45 45 45 43 42 41 41 41 42 42 36 34 33 32 31 30 30 31 31 30 30 31 31 31 32 34
51 52 51 49 49 49 49 45 43 45 44 43 38 43 45 45 45 44 43 43 42 40 39 38 38 38 39 39 34 33 32 31 30 30 30 30 30 31 32 31 31 32 35
50 51 49 47 46 47 46 44 36 33 34 35 43 45 45 43 45 44 42 41 38 36 36 35 34 35 36 34 33 32 34 30 29 29 31 30 30 31 31 32 33 34 34
50 50 48 47 42 44 42 43 43 44 45 45 45 45 45 44 44 44 40 38 37 33 32 32 33 30 29 29 30 30 30 29 27 29 31 31 31 31 32 32 33 34 35
50 48 46 38 34 39 38 43 46 46 45 45 45 42 45 45 44 43 42 31 31 30 30 30 30 30 30 29 29 29 30 29 30 30 29 29 29 29 30 30 31 33 33
MSLP
1018.30 1019.60 1020.59 1021.56 1022.38 1023.40 1024.11 1024.83 1025.50 1026.16 1026.26 1026.30 1026.46 1026.46 1026.45 1026.73 1027.07 1027.09 1027.73 1027.49 1027.59 1027.45 1027.06 1026.69 1026.51 1026.39 1025.83 1025.79 1025.47 1024.89 1024.17 1023.23 1023.01 1022.04 1021.05 1019.81 1019.25 1019.83 1019.78 1019.43 1019.49 1019.38 1019.47
1019.23 1020.49 1021.54 1022.44 1023.18 1023.83 1024.68 1025.35 1025.93 1026.39 1026.50 1026.57 1027.23 1027.03 1026.97 1026.99 1027.20 1027.69 1027.85 1027.87 1027.82 1027.73 1027.37 1027.35 1026.81 1026.66 1026.14 1025.75 1025.55 1025.18 1024.56 1023.75 1023.54 1022.69 1022.06 1019.77 1018.77 1018.95 1019.34 1019.49 1019.37 1019.44 1019.38
1019.73 1021.08 1022.13 1022.97 1023.79 1024.51 1025.16 1025.77 1026.62 1027.16 1027.53 1028.07 1027.91 1027.76 1027.57 1026.93 1026.74 1027.35 1027.27 1027.79 1028.13 1027.95 1027.81 1027.61 1027.25 1026.87 1026.42 1025.88 1025.67 1025.47 1025.04 1024.31 1023.72 1023.31 1023.60 1022.43 1020.63 1020.89 1018.97 1018.89 1019.35 1019.20 1019.01
1020.49 1021.67 1022.70 1023.57 1024.41 1025.27 1026.08 1026.92 1027.50 1027.91 1028.52 1028.61 1028.36 1028.05 1027.34 1027.01 1027.74 1027.58 1027.55 1027.62 1028.07 1028.03 1027.90 1027.78 1027.49 1027.01 1026.55 1026.10 1025.81 1025.60 1025.37 1024.85 1024.11 1024.01 1023.71 1023.84 1023.53 1022.43 1020.32 1019.10 1019.11 1019.09 1018.57
1021.35 1022.38 1023.33 1024.36 1025.27 1025.98 1026.96 1027.67 1028.25 1028.82 1029.32 1028.95 1028.58 1028.05 1027.87 1027.89 1027.95 1027.81 1027.89 1027.76 1027.74 1027.97 1028.05 1027.93 1027.54 1027.07 1026.61 1026.38 1026.17 1025.79 1025.49 1024.96 1024.62 1024.71 1024.51 1023.91 1023.12 1022.59 1022.11 1020.43 1019.49 1019.06 1018.71
1022.38 1023.23 1024.37 1025.26 1025.90 1026.66 1027.57 1028.21 1028.87 1029.42 1029.21 1029.00 1028.88 1028.83 1028.64 1028.43 1028.26 1028.31 1027.93 1027.69 1027.55 1027.48 1027.54 1027.70 1027.31 1027.03 1026.77 1026.35 1025.84 1025.54 1025.25 1025.06 1024.91 1025.02 1024.72 1024.13 1023.70 1022.96 1022.42 1021.45 1020.32 1019.66 1018.97
1023.28 1024.21 1024.97 1025.57 1026.38 1027.30 1027.90 1028.83 1029.47 1029.56 1029.35 1029.26 1029.23 1029.27 1029.11 1029.08 1028.73 1028.43 1028.19 1028.03 1027.86 1027.64 1027.51 1027.65 1027.32 1026.81 1026.73 1026.33 1025.84 1025.28 1025.20 1025.19 1025.27 1025.11 1024.63 1024.09 1023.38 1023.15 1022.53 1021.77 1020.70 1019.75 1019.01
1023.98 1024.54 1025.20 1025.91 1026.99 1027.82 1028.70 1029.32 1029.79 1029.71 1029.65 1029.52 1029.58 1029.52 1029.59 1029.10 1028.81 1028.80 1028.67 1028.35 1028.19 1027.84 1027.91 1027.55 1027.17 1026.82 1026.52 1026.23 1025.71 1025.01 1025.53 1025.53 1025.34 1024.91 1024.50 1023.98 1023.46 1022.93 1022.45 1021.95 1021.19 1019.81 1018.79
1024.31 1024.97 1025.83 1026.61 1027.65 1028.41 1029.17 1029.94 1030.11 1029.99 1029.76 1029.82 1029.83 1029.81 1029.66 1029.51 1029.36 1029.16 1028.98 1028.55 1028.25 1028.03 1027.72 1027.53 1026.99 1026.58 1026.35 1026.05 1025.58 1025.22 1025.53 1025.53 1025.03 1024.60 1024.19 1023.84 1023.19 1022.67 1022.17 1021.69 1021.16 1020.43 1019.01
1024.71 1025.49 1026.29 1027.23 1028.01 1029.16 1030.20 1030.48 1030.43 1030.07 1030.01 1030.09 1030.14 1030.01 1029.97 1029.86 1029.65 1029.35 1029.07 1028.75 1028.38 1027.96 1027.68 1027.25 1026.87 1026.55 1026.25 1025.91 1025.44 1025.35 1025.29 1025.03 1024.63 1024.12 1023.71 1023.44 1022.98 1022.35 1021.79 1021.27 1020.84 1020.26 1019.62
1025.01 1025.80 1026.81 1027.69 1028.75 1029.81 1030.45 1030.81 1030.21 1030.09 1030.15 1030.27 1030.31 1030.25 1030.13 1029.99 1029.72 1029.40 1029.13 1028.80 1028.43 1028.06 1027.60 1027.30 1026.95 1026.57 1026.30 1025.87 1025.58 1025.33 1024.97 1024.44 1023.94 1023.47 1023.26 1022.93 1022.42 1021.89 1021.39 1020.91 1020.34 1019.85 1019.33
1025.33 1026.23 1027.14 1028.11 1029.33 1030.10 1030.63 1030.21 1030.34 1030.26 1030.53 1030.61 1030.65 1030.53 1030.36 1030.17 1029.83 1029.58 1029.35 1029.09 1028.55 1028.13 1027.79 1027.45 1027.09 1026.73 1026.31 1025.90 1025.67 1025.41 1024.74 1023.97 1023.29 1022.86 1022.65 1022.36 1021.88 1021.39 1020.92 1020.41 1019.85 1019.27 1018.79
1025.84 1026.65 1027.50 1028.47 1029.59 1030.13 1030.49 1030.39 1030.34 1030.53 1030.69 1030.70 1030.62 1030.64 1030.56 1030.30 1030.00 1029.77 1029.60 1029.27 1028.83 1028.40 1027.98 1027.57 1027.16 1026.73 1026.31 1025.89 1025.84 1025.50 1024.49 1023.65 1022.96 1022.52 1022.17 1021.80 1021.39 1020.91 1020.45 1020.04 1019.34 1018.81 1018.30
1026.17 1026.83 1027.69 1028.85 1029.58 1030.36 1030.74 1030.65 1030.66 1030.90 1030.88 1030.86 1030.81 1030.83 1030.75 1030.61 1030.41 1030.13 1029.80 1029.50 1029.10 1028.59 1028.13 1027.69 1027.25 1026.80 1026.25 1025.82 1026.21 1025.27 1024.20 1023.32 1022.68 1022.23 1021.78 1021.34 1020.93 1020.61 1020.25 1019.61 1019.01 1018.34 1017.78
1026.20 1027.02 1027.81 1029.03 1029.93 1030.99 1031.19 1030.82 1030.92 1031.08 1031.12 1031.05 1030.97 1031.07 1031.03 1030.83 1030.64 1030.34 1030.01 1029.67 1029.20 1028.71 1028.21 1027.73 1027.24 1026.76 1026.14 1026.35 1026.23 1025.19 1024.09 1023.05 1022.34 1021.82 1021.35 1020.89 1020.70 1020.40 1020.05 1019.55 1018.71 1018.03 1017.41
1026.40 1027.38 1028.39 1029.47 1030.89 1031.34 1031.11 1031.10 1031.09 1031.29 1031.31 1031.26 1031.28 1031.37 1031.28 1031.05 1030.88 1030.51 1030.12 1029.63 1029.15 1028.69 1028.15 1027.61 1027.15 1026.67 1026.13 1027.02 1026.29 1025.33 1023.99 1022.76 1022.01 1021.37 1021.04 1020.65 1020.34 1019.87 1019.53 1018.94 1018.31 1017.86 1017.27
1026.67 1027.89 1028.86 1030.28 1031.07 1031.43 1031.12 1031.09 1031.25 1031.51 1031.53 1031.55 1031.66 1031.71 1031.57 1031.32 1031.03 1030.61 1030.20 1029.70 1029.16 1028.59 1028.01 1027.55 1027.12 1026.67 1026.32 1026.91 1026.02 1025.11 1023.70 1022.68 1021.89 1021.28 1020.79 1020.46 1020.09 1019.62 1019.03 1018.23 1017.52 1016.91 1016.56
1027.29 1028.57 1029.81 1030.64 1031.19 1031.09 1031.00 1031.31 1031.43 1031.61 1031.74 1031.89 1032.03 1032.04 1031.88 1031.56 1031.18 1030.67 1030.29 1029.81 1029.18 1028.54 1028.09 1027.62 1027.23 1026.80 1026.34 1026.78 1026.05 1025.06 1023.46 1022.46 1021.73 1021.17 1020.81 1020.47 1019.93 1019.47 1018.91 1017.88 1016.89 1016.17 1015.63
1028.25 1029.48 1030.29 1030.88 1031.20 1030.81 1031.13 1031.39 1031.63 1031.83 1032.03 1032.28 1032.41 1032.41 1032.26 1031.81 1031.39 1030.92 1030.48 1029.99 1029.33 1028.73 1028.23 1027.75 1027.35 1027.01 1026.33 1026.61 1026.09 1025.06 1023.57 1022.56 1021.73 1021.16 1020.78 1020.45 1019.92 1019.45 1018.60 1017.64 1016.56 1015.81 1015.05
1029.37 1030.15 1030.79 1031.16 1030.74 1031.07 1031.39 1031.61 1031.85 1032.12 1032.45 1032.77 1032.87 1032.67 1032.46 1032.09 1031.61 1031.17 1030.65 1030.16 1029.55 1028.99 1028.43 1027.89 1027.45 1027.09 1026.48 1026.25 1026.21 1025.38 1024.07 1023.05 1022.16 1021.33 1020.68 1020.25 1020.04 1019.25 1018.42 1017.53 1016.50 1015.65 1014.99
1030.03 1030.61 1030.95 1030.49 1030.91 1031.41 1031.75 1031.99 1032.26 1032.60 1033.06 1033.21 1033.09 1032.86 1032.57 1032.25 1031.81 1031.26 1030.75 1030.24 1029.74 1029.15 1028.63 1028.09 1027.56 1027.11 1026.66 1026.15 1026.24 1025.65 1024.77 1023.93 1022.70 1021.76 1021.00 1020.42 1019.99 1019.13 1018.29 1017.55 1016.71 1016.01 1015.20
1030.40 1030.48 1030.48 1030.93 1031.36 1031.85 1032.06 1032.28 1032.68 1033.26 1033.36 1033.36 1033.16 1032.96 1032.71 1032.35 1031.90 1031.39 1030.93 1030.42 1030.03 1029.45 1028.97 1028.47 1027.89 1027.43 1026.79 1026.62 1026.31 1025.77 1025.17 1024.43 1023.31 1022.45 1021.75 1020.99 1020.09 1019.12 1018.27 1017.46 1016.65 1015.69 1014.78
1029.95 1030.44 1030.88 1031.44 1031.88 1032.26 1032.48 1032.71 1033.32 1033.51 1033.59 1033.54 1033.77 1033.10 1032.63 1032.32 1032.04 1031.71 1031.35 1030.85 1030.66 1030.15 1029.71 1029.20 1028.61 1028.09 1027.47 1026.91 1026.69 1025.97 1025.22 1024.46 1023.77 1023.09 1022.23 1021.25 1020.19 1019.19 1018.31 1017.59 1016.73 1015.95 1015.15
1030.29 1030.87 1031.40 1031.85 1032.39 1032.79 1033.16 1033.57 1034.09 1034.13 1034.17 1033.99 1033.13 1032.81 1032.59 1032.54 1032.16 1032.13 1032.08 1031.79 1031.77 1031.39 1030.87 1030.41 1029.77 1029.22 1028.54 1028.10 1027.59 1026.71 1025.67 1024.99 1024.19 1023.30 1022.28 1021.50 1020.61 1019.65 1018.83 1017.86 1017.07 1016.53 1015.82
1030.90 1031.37 1031.87 1032.47 1033.26 1033.51 1033.89 1034.07 1034.13 1033.98 1033.52 1033.27 1033.10 1032.93 1032.71 1032.52 1032.30 1032.31 1032.94 1032.92 1032.99 1033.21 1032.55 1032.00 1031.22 1030.51 1029.83 1029.58 1029.19 1028.31 1027.07 1026.22 1025.28 1023.84 1022.75 1021.70 1020.87 1020.08 1019.27 1018.53 1017.77 1017.17 1016.60
1031.46 1032.07 1032.89 1033.91 1034.34 1034.40 1034.61 1034.36 1034.05 1033.79 1033.58 1033.30 1033.31 1033.54 1032.96 1032.74 1032.65 1032.55 1032.68 1033.66 1033.63 1033.63 1033.42 1033.13 1032.58 1031.75 1031.27 1030.59 1029.62 1028.71 1027.59 1026.72 1025.49 1024.31 1023.51 1022.77 1022.08 1021.43 1020.65 1019.73 1018.81 1017.91 1017.51
Wind_Speed
12 13 13 13 13 11 11 10 9 8 4 4 2 1 2 2 3 5 6 6 7 8 8 8 8 8 8 9 10 10 11 9 10 10 10 9 5 5 4 6 6 7 8
13 13 14 13 12 11 11 10 8 6 5 4 5 3 2 3 5 4 4 7 7 8 8 8 8 8 8 9 10 10 10 9 9 9 11 7 8 4 8 4 5 7 7
13 14 14 13 12 12 10 10 10 9 10 7 1 2 4 3 2 3 5 5 8 7 8 8 8 8 8 8 10 10 13 10 10 9 4 7 7 13 2 7 4 7 7
11 13 13 13 12 12 11 12 11 11 10 8 3 5 6 6 5 5 5 6 6 7 8 8 8 8 8 9 9 9 10 10 10 8 6 7 7 6 9 5 10 8 10
11 13 13 13 13 12 12 11 12 11 7 6 5 5 6 3 3 5 6 6 6 6 7 8 8 9 8 9 10 11 11 9 7 6 7 8 7 8 7 12 10 10 9
11 13 13 13 12 12 11 10 11 7 7 6 7 7 6 6 7 7 6 6 5 5 6 8 8 9 10 10 10 11 11 10 8 7 7 7 5 7 7 10 12 12 11
11 13 14 12 11 11 11 10 8 7 6 6 7 7 7 8 6 8 7 8 7 6 7 9 9 9 10 11 11 11 10 10 7 10 8 8 8 7 9 10 11 11 10
11 12 12 11 11 11 11 9 7 7 6 7 7 7 7 5 6 8 7 7 6 7 10 9 9 11 11 11 11 9 8 10 8 11 9 8 8 8 8 8 10 11 10
11 12 11 10 10 10 10 8 7 5 6 7 6 6 7 8 8 8 8 7 8 8 9 11 10 11 11 12 13 8 9 10 9 9 8 8 8 8 8 9 8 9 11
11 11 10 10 9 11 9 7 4 6 6 6 6 7 8 8 8 8 9 9 9 10 10 10 11 11 12 13 12 9 9 10 8 8 10 9 8 10 9 8 8 8 9
11 11 9 9 11 10 8 4 4 5 6 6 7 7 7 8 8 7 9 9 10 10 10 11 11 12 13 12 10 11 12 11 12 10 9 11 12 9 8 8 8 8 8
10 10 10 10 9 8 6 3 4 6 6 6 7 7 8 8 8 9 10 10 11 10 11 11 12 12 12 12 11 12 15 12 14 13 11 12 9 12 10 8 10 9 10
10 9 9 9 8 6 2 4 5 6 6 6 6 7 8 9 9 10 10 11 11 11 11 11 11 12 12 12 12 14 16 13 13 12 12 12 12 11 9 10 8 9 9
9 9 8 8 7 5 4 2 5 5 5 6 7 7 9 9 10 10 10 10 11 11 11 11 11 12 12 11 14 16 16 14 12 12 12 11 11 11 12 10 11 9 9
9 9 8 8 7 4 1 2 4 4 5 6 7 8 9 8 9 10 10 10 11 11 11 11 11 12 11 10 16 17 17 15 13 12 11 10 12 16 13 10 11 12 10
8 8 8 7 5 3 2 3 3 4 5 6 7 8 8 9 9 9 10 10 11 11 11 11 12 12 9 19 23 21 16 14 13 12 12 11 13 12 17 18 19 15 10
9 9 7 8 5 4 3 1 3 3 5 6 8 8 8 9 9 9 10 11 11 11 12 12 13 13 12 20 24 25 14 13 13 12 11 10 9 13 13 17 17 14 14
8 8 9 7 6 6 4 4 3 4 5 7 7 8 8 8 9 10 11 11 11 12 12 12 14 14 11 19 25 26 15 12 14 12 11 11 13 13 17 15 13 10 9
7 9 7 7 6 6 5 4 3 5 6 7 7 7 8 9 10 11 12 11 12 12 11 12 13 14 14 19 25 22 15 15 15 13 12 11 12 20 21 14 12 11 8
9 9 8 7 6 6 6 4 4 4 6 6 6 7 7 9 10 11 11 11 11 11 10 12 12 12 15 19 24 21 12 15 13 13 13 15 16 22 19 12 10 10 9
10 9 8 6 7 7 4 4 4 6 5 4 6 7 8 9 10 10 10 11 11 11 12 13 12 14 15 17 24 24 14 12 11 11 11 11 24 22 18 16 10 11 11
9 7 7 7 7 6 3 4 6 4 4 5 6 7 8 7 8 11 11 11 12 12 12 13 12 12 15 18 22 24 22 21 12 11 10 12 22 21 17 14 19 15 7
8 7 7 8 6 5 4 5 4 3 3 6 6 7 7 8 8 10 11 9 11 11 11 11 11 12 12 14 23 23 24 22 12 11 15 20 20 19 13 17 17 11 8
7 7 7 7 6 6 6 5 4 3 1 3 5 6 7 9 8 7 8 9 9 10 10 11 11 12 12 13 15 14 14 19 14 16 12 12 13 11 11 11 11 9 8
7 6 6 6 6 6 6 5 2 3 4 5 6 7 6 8 8 7 6 8 8 9 9 9 10 11 12 14 20 17 12 13 14 12 10 10 11 12 12 11 12 10 10
7 7 8 8 4 5 3 3 3 5 6 6 5 6 6 6 7 7 5 8 5 6 10 12 10 9 14 21 24 23 21 23 20 10 11 12 11 12 12 12 12 11 12
Wind_Direction
131 142 136 136 129 126 122 117 112 109 132 149 138 100 21 52 29 45 15 22 12 2 354 351 350 346 346 346 342 337 336 333 345 319 331 304 250 298 289 311 296 319 309
136 135 140 135 137 124 111 111 111 92 53 51 39 357 3 51 27 16 19 14 5 1 351 353 347 354 340 344 346 344 335 334 339 331 318 323 299 154 293 309 317 324 313
140 141 142 135 127 119 114 100 84 79 61 66 49 63 185 199 357 352 7 25 356 359 357 351 346 343 340 344 341 345 336 328 322 350 323 329 347 330 99 306 295 335 307
133 139 136 137 115 104 96 83 81 78 61 33 27 349 6 4 7 348 11 339 4 352 355 345 345 342 336 342 341 337 327 326 322 340 327 300 268 293 313 330 315 325 307
129 136 137 121 113 108 97 96 81 73 67 54 14 350 19 20 2 352 342 352 358 354 357 342 334 339 339 340 335 330 326 320 324 316 304 303 303 259 269 299 323 310 324
123 126 119 125 116 103 97 90 86 83 68 52 41 32 23 5 2 357 343 353 350 340 3 337 333 332 339 334 330 325 321 324 323 314 293 281 288 300 301 295 301 307 306
128 135 142 132 117 116 102 92 92 77 63 52 40 30 16 19 353 350 354 342 344 343 355 336 331 335 333 329 328 321 336 326 315 295 291 291 287 285 291 291 291 300 306
140 148 140 133 118 101 93 95 87 70 49 39 33 28 16 360 356 359 350 346 335 336 335 332 323 327 330 330 327 323 335 324 309 297 301 299 292 282 274 276 292 296 296
146 142 132 115 111 110 97 89 75 62 40 36 23 21 8 5 359 349 346 343 336 331 332 324 321 327 331 329 325 341 325 310 308 302 295 290 294 296 286 283 278 289 296
142 141 132 126 116 97 97 78 58 52 40 34 17 14 5 359 354 346 345 338 334 329 326 326 328 330 331 329 328 332 329 312 310 299 300 295 278 279 282 283 282 278 281
147 147 135 127 107 110 93 105 72 49 34 26 15 9 0 355 350 345 343 343 335 335 334 334 331 333 331 331 335 329 323 308 313 311 302 295 294 288 288 285 274 276 276
149 142 140 128 127 119 87 88 62 40 29 24 10 2 359 352 355 356 352 346 344 341 339 336 335 334 335 337 331 334 318 316 318 316 306 298 294 294 289 282 281 277 277
148 150 148 136 133 132 135 61 44 40 24 12 4 7 1 0 358 357 355 352 349 347 343 339 339 339 340 334 348 323 322 321 319 318 307 303 298 297 295 296 291 285 276
161 162 158 143 153 104 71 50 52 29 15 9 5 11 6 1 0 357 355 355 350 348 345 344 343 343 340 349 338 327 323 322 320 316 311 304 304 303 305 312 298 287 291
173 172 163 151 125 120 227 75 45 29 11 7 10 11 7 6 3 1 359 357 355 353 349 346 348 345 344 12 333 333 329 319 317 320 313 314 317 307 308 304 302 299 293
170 166 162 136 141 161 212 77 54 31 4 15 15 14 10 10 6 2 359 357 356 356 355 354 352 350 347 356 338 338 325 322 325 323 319 324 315 317 309 304 292 279 288
170 167 159 136 158 172 159 59 85 36 15 20 20 17 12 8 4 1 359 359 356 352 354 358 357 352 355 354 342 343 323 328 324 326 326 324 320 317 322 313 302 277 259
163 156 123 139 143 192 130 113 85 41 30 29 26 19 8 7 3 2 0 358 352 358 359 356 358 357 4 0 347 343 335 332 333 333 333 330 324 328 327 318 305 297 283
127 120 128 129 174 142 115 102 71 47 47 36 26 17 4 4 1 2 358 356 353 357 357 356 358 1 355 10 353 348 340 341 341 340 339 338 331 335 332 319 314 308 296
114 119 124 151 149 113 116 94 55 58 50 31 19 8 2 358 359 356 356 353 355 355 355 358 2 360 358 10 359 355 344 343 338 340 338 344 347 338 339 331 324 321 329
113 121 154 143 108 115 107 78 70 61 58 24 5 5 358 360 353 350 357 355 356 356 1 360 4 1 0 0 2 357 350 348 334 339 340 340 343 342 345 344 342 325 308
127 162 122 115 109 111 92 77 75 77 46 13 1 359 357 356 351 353 360 2 2 360 3 1 3 2 357 9 0 354 354 354 340 343 341 339 342 347 348 352 345 339 331
130 126 116 115 109 95 54 80 88 67 20 13 350 342 353 357 3 359 2 5 6 2 2 2 359 358 355 360 357 354 355 356 347 347 342 347 348 352 357 353 353 360 3
123 116 125 120 107 86 77 93 47 38 51 260 330 3 8 343 11 14 9 10 10 1 2 3 357 355 354 359 352 353 352 353 355 344 344 346 350 1 359 1 4 7 1
124 126 117 107 79 78 84 73 33 343 348 2 13 9 6 4 4 25 21 17 30 10 358 3 353 353 352 353 351 353 352 355 345 338 351 3 5 5 6 6 7 10 9
128 120 107 108 113 105 79 41 28 8 3 18 17 27 359 4 7 8 18 112 84 29 24 15 10 350 354 350 356 357 357 4 356 5 6 7 6 6 3 3 2 9 10